TimeEDT,TemperatureF,Dew PointF,Humidity,Sea Level PressureIn,VisibilityMPH,Wind Direction,Wind SpeedMPH,Gust SpeedMPH,PrecipitationIn,Events,Conditions,WindDirDegrees,DateUTC
12:15 AM,51.8,50.9,97,30.30,5.0,Calm,Calm,-,N/A,,Mostly Cloudy,0,2013-09-17 04:15:00
12:35 AM,52.5,51.6,97,30.31,5.0,Calm,Calm,-,N/A,,Mostly Cloudy,0,2013-09-17 04:35:00
12:55 AM,52.0,51.1,97,30.31,4.0,Calm,Calm,-,N/A,,Scattered Clouds,0,2013-09-17 04:55:00
1:15 AM,51.8,50.9,97,30.31,5.0,Calm,Calm,-,N/A,,Scattered Clouds,0,2013-09-17 05:15:00
1:35 AM,51.4,50.5,97,30.32,4.0,Calm,Calm,-,N/A,,Mostly Cloudy,0,2013-09-17 05:35:00
1:55 AM,52.9,52.2,97,30.32,5.0,Calm,Calm,-,N/A,,Overcast,0,2013-09-17 05:55:00
2:15 AM,53.6,52.7,97,30.33,7.0,Calm,Calm,-,N/A,,Overcast,0,2013-09-17 06:15:00
2:35 AM,53.8,52.9,97,30.33,5.0,Calm,Calm,-,N/A,,Overcast,0,2013-09-17 06:35:00
2:55 AM,54.0,53.1,97,30.33,7.0,Calm,Calm,-,N/A,,Overcast,0,2013-09-17 06:55:00
3:15 AM,54.5,53.6,97,30.33,7.0,Calm,Calm,-,N/A,,Overcast,0,2013-09-17 07:15:00
3:35 AM,54.7,53.8,97,30.33,7.0,Calm,Calm,-,N/A,,Overcast,0,2013-09-17 07:35:00
3:55 AM,54.9,53.8,96,30.34,7.0,Calm,Calm,-,N/A,,Overcast,0,2013-09-17 07:55:00
4:15 AM,55.0,54.0,96,30.34,7.0,Calm,Calm,-,N/A,,Overcast,0,2013-09-17 08:15:00
4:35 AM,55.0,54.0,96,30.34,10.0,Calm,Calm,-,N/A,,Overcast,0,2013-09-17 08:35:00
4:55 AM,55.4,54.0,95,30.34,10.0,Calm,Calm,-,N/A,,Overcast,0,2013-09-17 08:55:00
5:15 AM,55.4,54.0,95,30.35,7.0,Calm,Calm,-,N/A,,Overcast,0,2013-09-17 09:15:00
5:35 AM,55.4,54.0,95,30.35,10.0,Calm,Calm,-,N/A,,Overcast,0,2013-09-17 09:35:00
5:55 AM,55.4,54.0,95,30.36,10.0,Calm,Calm,-,N/A,,Overcast,0,2013-09-17 09:55:00
6:15 AM,55.6,54.3,96,30.37,10.0,Calm,Calm,-,N/A,,Overcast,0,2013-09-17 10:15:00
6:35 AM,55.9,54.3,94,30.38,10.0,Calm,Calm,-,N/A,,Overcast,0,2013-09-17 10:35:00
6:55 AM,55.9,54.5,95,30.39,10.0,Calm,Calm,-,N/A,,Overcast,0,2013-09-17 10:55:00
7:15 AM,55.6,54.1,95,30.39,10.0,Calm,Calm,-,N/A,,Overcast,0,2013-09-17 11:15:00
7:35 AM,55.6,54.1,95,30.39,7.0,Calm,Calm,-,N/A,,Overcast,0,2013-09-17 11:35:00
7:55 AM,55.9,54.5,95,30.40,10.0,Calm,Calm,-,N/A,,Overcast,0,2013-09-17 11:55:00
8:15 AM,56.1,53.8,92,30.41,10.0,Calm,Calm,-,N/A,,Overcast,0,2013-09-17 12:15:00
8:35 AM,56.3,52.7,88,30.42,10.0,Calm,Calm,-,N/A,,Overcast,0,2013-09-17 12:35:00
8:55 AM,56.3,52.0,85,30.42,10.0,Calm,Calm,-,N/A,,Overcast,0,2013-09-17 12:55:00
9:15 AM,55.9,51.4,85,30.42,10.0,Calm,Calm,-,N/A,,Overcast,0,2013-09-17 13:15:00
9:35 AM,56.1,51.3,84,30.43,10.0,Calm,Calm,-,N/A,,Overcast,0,2013-09-17 13:35:00
9:55 AM,55.9,51.1,84,30.43,10.0,Calm,Calm,-,N/A,,Overcast,0,2013-09-17 13:55:00
10:15 AM,56.3,50.9,82,30.43,10.0,Calm,Calm,-,N/A,,Overcast,0,2013-09-17 14:15:00
10:35 AM,56.3,51.1,83,30.44,10.0,Calm,Calm,-,N/A,,Overcast,0,2013-09-17 14:35:00
10:55 AM,55.4,50.7,84,30.45,10.0,Calm,Calm,-,N/A,,Overcast,0,2013-09-17 14:55:00
11:15 AM,55.6,50.5,83,30.44,10.0,Calm,Calm,-,N/A,,Overcast,0,2013-09-17 15:15:00
11:35 AM,56.3,50.7,82,30.44,10.0,Calm,Calm,-,N/A,,Overcast,0,2013-09-17 15:35:00
11:55 AM,57.0,51.1,81,30.44,10.0,Calm,Calm,-,N/A,,Overcast,0,2013-09-17 15:55:00
12:15 PM,57.0,50.4,78,30.44,10.0,Calm,Calm,-,N/A,,Overcast,0,2013-09-17 16:15:00
12:35 PM,58.5,50.7,75,30.43,10.0,Calm,Calm,-,N/A,,Overcast,0,2013-09-17 16:35:00
12:55 PM,58.3,50.2,74,30.42,10.0,Calm,Calm,-,N/A,,Overcast,0,2013-09-17 16:55:00
1:15 PM,58.8,50.2,73,30.42,10.0,Calm,Calm,-,N/A,,Overcast,0,2013-09-17 17:15:00
1:35 PM,59.7,50.0,70,30.41,10.0,Calm,Calm,-,N/A,,Overcast,0,2013-09-17 17:35:00
1:55 PM,59.5,50.2,71,30.40,10.0,Calm,Calm,-,N/A,,Overcast,0,2013-09-17 17:55:00
2:15 PM,60.3,50.9,71,30.39,10.0,Calm,Calm,-,N/A,,Overcast,0,2013-09-17 18:15:00
2:35 PM,62.4,51.3,67,30.39,10.0,Calm,Calm,-,N/A,,Overcast,0,2013-09-17 18:35:00
2:55 PM,62.8,51.6,67,30.38,10.0,Calm,Calm,-,N/A,,Mostly Cloudy,0,2013-09-17 18:55:00
3:15 PM,64.0,51.8,64,30.37,10.0,Calm,Calm,-,N/A,,Scattered Clouds,0,2013-09-17 19:15:00
3:35 PM,64.2,51.6,64,30.36,10.0,Calm,Calm,-,N/A,,Clear,0,2013-09-17 19:35:00
3:55 PM,65.5,52.7,63,30.35,10.0,Calm,Calm,-,N/A,,Clear,0,2013-09-17 19:55:00
4:15 PM,66.7,52.5,60,30.34,10.0,Calm,Calm,-,N/A,,Clear,0,2013-09-17 20:15:00
4:35 PM,67.1,52.3,59,30.34,10.0,Calm,Calm,-,N/A,,Clear,0,2013-09-17 20:35:00
4:55 PM,66.6,51.8,59,30.33,10.0,Calm,Calm,-,N/A,,Clear,0,2013-09-17 20:55:00
5:15 PM,67.1,51.3,57,30.33,10.0,Calm,Calm,-,N/A,,Clear,0,2013-09-17 21:15:00
5:35 PM,67.1,51.3,57,30.32,10.0,Calm,Calm,-,N/A,,Clear,0,2013-09-17 21:35:00
5:55 PM,66.9,50.9,56,30.32,10.0,Calm,Calm,-,N/A,,Clear,0,2013-09-17 21:55:00
6:15 PM,65.8,50.7,58,30.32,10.0,Calm,Calm,-,N/A,,Clear,0,2013-09-17 22:15:00
6:35 PM,64.6,53.6,68,30.32,10.0,Calm,Calm,-,N/A,,Clear,0,2013-09-17 22:35:00
6:55 PM,62.1,53.6,74,30.32,10.0,Calm,Calm,-,N/A,,Clear,0,2013-09-17 22:55:00
7:15 PM,57.7,52.2,82,30.32,10.0,Calm,Calm,-,N/A,,Clear,0,2013-09-17 23:15:00
7:35 PM,55.2,51.8,88,30.32,10.0,Calm,Calm,-,N/A,,Clear,0,2013-09-17 23:35:00
7:55 PM,54.1,51.3,90,30.32,10.0,Calm,Calm,-,N/A,,Clear,0,2013-09-17 23:55:00
8:15 PM,53.1,50.5,91,30.33,10.0,Calm,Calm,-,N/A,,Clear,0,2013-09-18 00:15:00
8:35 PM,52.9,51.1,94,30.33,10.0,Calm,Calm,-,N/A,,Clear,0,2013-09-18 00:35:00
8:55 PM,53.1,51.1,93,30.34,10.0,Calm,Calm,-,N/A,,Clear,0,2013-09-18 00:55:00
9:15 PM,52.2,50.4,94,30.34,10.0,Calm,Calm,-,N/A,,Clear,0,2013-09-18 01:15:00
9:35 PM,52.2,50.7,95,30.34,10.0,Calm,Calm,-,N/A,,Clear,0,2013-09-18 01:35:00
9:55 PM,50.2,48.7,95,30.34,10.0,Calm,Calm,-,N/A,,Clear,0,2013-09-18 01:55:00
10:15 PM,50.0,48.7,95,30.34,10.0,Calm,Calm,-,N/A,,Clear,0,2013-09-18 02:15:00
10:35 PM,50.0,48.6,95,30.35,10.0,Calm,Calm,-,N/A,,Clear,0,2013-09-18 02:35:00
10:55 PM,49.1,47.8,95,30.35,7.0,Calm,Calm,-,N/A,,Clear,0,2013-09-18 02:55:00
11:15 PM,47.8,46.8,96,30.35,10.0,Calm,Calm,-,N/A,,Scattered Clouds,0,2013-09-18 03:15:00
11:35 PM,47.7,46.6,96,30.35,10.0,Calm,Calm,-,N/A,,Scattered Clouds,0,2013-09-18 03:35:00
11:55 PM,48.0,46.9,96,30.35,10.0,Calm,Calm,-,N/A,,Scattered Clouds,0,2013-09-18 03:55:00